{"data":{"norad_id":45061,"intl_designator":"2020-006T","name":"STARLINK-1169","alt_names":[],"object_type":"PAYLOAD","status":"ACTIVE","operator":null,"country":"US","launch_date":"2020-01-29","launch_site_code":"AFETR","launch_vehicle":null,"mission":null,"orbit_class":"UNKNOWN","rcs_meters":null,"size_class":null,"mass_kg":null,"dimensions":null,"purposes":["comms"],"wikipedia_slug":null,"has_3d_model":false,"image_url":null,"decayed_at":null,"tle_current":{"epoch":"2026-09-20T03:57:42.617376Z","epoch_age_seconds":43466,"freshness":"FRESH","line1":"1 45061U 20006T   26263.16507659  .00050494  00000+0  94252-3 0  9998","line2":"2 45061  53.1499  85.4764 0001985 211.2923 148.7968 15.48305784366492","mean_motion":15.48305784,"eccentricity":0.0001985,"inclination_deg":53.1499,"raan_deg":85.4764,"arg_perigee_deg":211.2923,"mean_anomaly_deg":148.7968,"bstar":0.00094252,"rev_number":36649,"period_min":93.004884104986,"perigee_km":420.33220270843,"apogee_km":423.03173083823,"semimajor_km":6799.8189667733,"source":"CELESTRAK","updated_at":"2026-09-20T09:00:38.223237Z"}}}